Weather observations for the past three days for
Ord, Evelyn Sharp Field Airport
Imperial (Metric)
Date Time (cdt) Wind (mph) Vis. (mi.) Weather Sky Cond. Temperature (ºF) Relative Humidity Wind Chill (°F) Heat Index (°F) Pressure Precipitation (in)
Air Dwpt 6 hour altimeter (in) sea level (mb) 1 hr 3 hr 6 hr
Max. Min.
03 14:53 SE 8 G 20 10.00 Fair CLR 89.1 64.9 45% 91 29.8 1007.7
03 13:53 SE 7 10.00 Fair CLR 89.1 64.9 45% 91 29.81 1008.0
03 12:53 SE 5 10.00 Fair CLR 88 64 88 66.9 45% 89 29.82 1008.5
03 11:53 S 5 10.00 Fair CLR 86 66 51% 88 29.82 1008.3
03 10:53 S 9 10.00 Fair CLR 82.9 66.9 59% 86 29.83 1008.5
03 09:53 E 6 10.00 Fair CLR 79 68 69% 81 29.81 1008.1
03 08:53 S 3 10.00 Fair CLR 73.9 64 71% 29.83 1008.8
03 07:53 Calm 10.00 Fair CLR 68 63 84% 29.83 1008.9
03 06:53 S 6 10.00 Fair CLR 69.1 62.1 75 64.9 78% 29.82 1008.4
03 05:53 Calm 10.00 A Few Clouds FEW110 66.9 62.1 84% 29.83 1008.8
03 04:53 Calm 10.00 Fair CLR 66 63 90% 29.8 1007.5
03 03:53 S 7 10.00 Fair CLR 72 63 73% 29.78 1006.9
03 02:53 S 7 10.00 Fair CLR 72 63 73% 29.79 1007.0
03 01:53 S 3 10.00 A Few Clouds FEW120 72 64.9 79% 29.79 1007.4
03 00:53 E 6 10.00 Fair CLR 72 68 90 72 87% 29.8 1007.6
02 23:53 E 5 10.00 Partly Cloudy SCT100 75 70 84% 75 29.81 1007.8
02 22:53 Calm 10.00 Fair CLR 75 71.1 88% 75 29.81 1007.9
02 21:53 Calm 10.00 Fair CLR 75 71.1 88% 75 29.8 1007.9
02 20:53 E 3 10.00 Fair CLR 79 73 82% 82 29.8 1007.7
02 19:53 E 3 10.00 Fair CLR 84 72 67% 90 29.79 1007.6
02 18:53 SE 7 10.00 Fair CLR 90 71.1 95 88 54% 96 29.79 1007.5
02 17:53 S 13 10.00 Fair CLR 91.9 68 46% 96 29.8 1007.8
02 16:53 S 13 G 22 10.00 Fair CLR 93.9 68 43% 98 29.81 1008.0
02 15:53 S 10 10.00 Fair CLR 93.9 66.9 41% 98 29.82 1008.3
02 14:53 SW 12 10.00 Fair CLR 93 66.9 42% 97 29.84 1008.8
02 13:53 SW 8 10.00 Fair CLR 91 66.9 45% 94 29.86 1009.5
02 12:53 SW 7 10.00 Fair CLR 88 69.1 88 64.9 54% 92 29.87 1010.0
02 10:53 S 7 10.00 Fair CLR 82.9 69.1 63% 87 29.88 1010.3
02 09:53 S 5 10.00 Fair CLR 78.1 66.9 69% 80 29.88 1010.3
02 08:53 Calm 10.00 Fair CLR 73 66 79% 29.89 1010.9
02 07:53 Calm 10.00 Fair CLR 66.9 64 91% 29.88 1010.7
02 06:53 Calm 7.00 Fair CLR 64.9 64.9 73.9 64 100% 29.86 1010.1
02 05:53 Calm 4.00 Fog/Mist CLR 66.9 66.9 100% 29.87 1010.1
02 04:53 SE 5 10.00 Fair CLR 69.1 66.9 93% 29.86 1009.7
02 03:53 Calm 10.00 Fair CLR 71.1 69.1 94% 29.86 1009.8
02 02:53 Calm 10.00 Partly Cloudy SCT100 71.1 69.1 94% 29.87 1010.1
02 01:53 E 3 10.00 Partly Cloudy SCT100 72 70 94% 29.89 1010.6
02 00:53 SE 6 10.00 A Few Clouds FEW090 73.9 72 86 73 94% 29.88 1010.2 0.18
01 23:53 N 3 10.00 Mostly Cloudy BKN100 73.9 72 94% 29.89 1010.9
01 22:53 N 6 G 23 10.00 Thunderstorm Light Rain FEW016 BKN090 73.9 69.1 85% 29.9 1011.1 0.18
01 21:53 Calm 10.00 Partly Cloudy SCT100 77 73.9 90% 78 29.87 1010.2
01 20:53 E 5 10.00 Fair CLR 80.1 73 79% 84 29.86 1009.7
01 19:53 E 5 9.00 Fair CLR 81 73.9 79% 86 29.86 1009.8
01 18:53 SE 7 10.00 Fair CLR 86 72 90 86 63% 92 29.87 1010.0
01 17:53 SE 10 10.00 Fair CLR 88 71.1 57% 94 29.86 1010.0
01 16:53 SE 10 10.00 Fair CLR 89.1 72 57% 96 29.88 1010.5
01 15:53 SE 8 10.00 Fair CLR 89.1 71.1 55% 95 29.91 1011.4
01 14:53 SE 9 10.00 Fair CLR 89.1 71.1 55% 95 29.93 1012.2
01 13:53 E 6 10.00 Fair CLR 88 70 55% 93 29.95 1012.7
01 12:53 E 6 10.00 Fair CLR 88 70 88 69.1 55% 93 29.96 1013.0
01 11:53 Vrbl 3 10.00 Fair CLR 86 71.1 61% 92 29.96 1013.2
01 10:53 E 6 10.00 Fair CLR 82.9 71.1 67% 88 29.95 1012.9
01 09:53 NE 6 10.00 Fair CLR 81 69.1 67% 84 29.95 1013.0
01 08:53 Calm 10.00 Mostly Cloudy BKN110 75 69.1 82% 75 29.96 1013.4
01 07:53 N 6 10.00 Partly Cloudy SCT120 71.1 68 90% 29.97 1013.8
01 06:53 NW 7 10.00 A Few Clouds FEW120 69.1 68 71.1 66.9 96% 29.97 1013.7
01 05:53 NW 6 10.00 Mostly Cloudy BKN120 68 66.9 96% 29.95 1012.9
01 04:53 NW 3 10.00 Fair CLR 68 66.9 96% 29.95 1012.8
01 03:53 N 5 10.00 Fair CLR 66.9 66 97% 29.95 1013.0
01 02:53 NW 5 10.00 Fair CLR 68 66.9 96% 29.96 1013.1
01 01:53 Calm 10.00 Fair CLR 69.1 66.9 93% 29.96 1013.5
01 00:53 Calm 10.00 Fair CLR 71.1 69.1 86 70 94% 29.97 1013.6
31 23:53 Calm 10.00 Fair CLR 73 69.1 87% 29.97 1013.9
31 22:53 SE 3 10.00 Fair CLR 75 70 84% 75 29.97 1014.0
31 21:53 Calm 10.00 Fair CLR 75 68 79% 76 29.97 1013.8
31 20:53 E 5 10.00 Fair CLR 77 70 79% 79 29.94 1012.8
31 19:53 SE 8 10.00 Fair CLR 82 69.1 65% 85 29.93 1012.6
31 18:53 SE 7 10.00 Fair CLR 86 69.1 88 80.1 57% 90 29.94 1012.7
31 17:53 S 7 10.00 Fair CLR 87.1 69.1 55% 91 29.94 1012.9
31 16:53 S 7 10.00 Fair CLR 88 66.9 50% 91 29.95 1013.0
31 15:53 SE 10 10.00 Fair CLR 88 66 48% 90 29.96 1013.2
Date Time (cdt) Wind (mph) Vis. (mi.) Weather Sky Cond. Air Dwpt Max. Min. Relative Humidity Wind Chill (°F) Heat Index (°F) altimeter (in) sea level (mb) 1 hr 3 hr 6 hr
6 hour
Temperature (ºF) Pressure Precipitation (in)